COSMOS 2170

Satellite information

Favourite Embed

Satellite Type and Status

PAYLOADIN ORBIT

Key statistics

Satellite COSMOS 2170 at a glance.

Uptime

12403

Days in orbit

Revolutions

≈ 12.6

Per day

Orbit

LEO

Low Earth Orbit

Inclination

82.6

Latest

Satellite identification and parameters

Extended collection of information and parameters for COSMOS 2170.

Object identification

Identified? True

Debris? False

Object name: COSMOS 2170

International designator: 1991-077F

Object number (NORAD): 21784

Object ID (CCSDS): 21784

Country: COMMONWEALTH OF INDEPENDENT STATES (CIS)

Current information (Y/N): Y

RCS size: MEDIUM

Orbital parameters

Period: 114.052 minutes

Inclination: 82.6096 deg

SMA: 7790.449 km

Apoapsis: 1415.055 km

Periapsis: 1409.572 km

RAAN: 57.4194 deg

Eccentricy: 0.00035187

Argument of periapsis: 104.1621 deg

Mean anomaly: 16.1986 deg

Mean motion: 12.62580455 rev/day

Mean motion (dot): 0.00000032 rev/day2

B* drag term: 0.00011614594 1/REarth

Two-line elements (TLE)

Creation date: Oct. 27, 2025, 2:46 a.m.

Reference frame: TEME

Reference center: EARTH

Epoch: Oct. 26, 2025, 8:48 p.m. UTC

TLE line 0: 0 COSMOS 2170

TLE line 1: 1 21784U 91077F 25299.86671336 .00000032 00000-0 11615-3 0 9995

TLE line 2: 2 21784 82.6096 57.4194 0003519 104.1621 16.1986 12.62580455564631

Live tracking on map

Real-time ground track for satellite COSMOS 2170.

In-orbit conjunctions

A list of the most updated potential collisions computed for object COSMOS 2170.

Target Orbit TCA Probability of collision Miss distance Type
COSMOS 1622 LEO 2025-07-23 15:02:59 0.0003277104 46.0 (m) PAYLOAD

Associated space launch

Second generation store-dump military communications satellite

COSMOS 2170 was lifted into orbit during the mission ‘Tsiklon-3 | Strela-3 73 to 78’, on board a Tsiklon-3 space rocket.

The launch took place on Nov. 12, 1991, 8:09 p.m. from 32/1.

For more information about the launch, click the button.

Launch to space Tsiklon-3 | Strela-3 73 to 78
Tsiklon-3 | Strela-3 73 to 78

Agency: N/A

Status: Launch Successful

Launch date: Nov. 12, 1991, 8:09 p.m. UTC

Rocket: Tsiklon-3

Launch pad: 32/1

Location: Plesetsk Cosmodrome, Russian Federation

...

Latest news about this satellite

There are no fresh news available about this satellite. Check back as we update our databases every day.


Newsletter sign-up

Weekly statistics, charts and insights to help you stay on top of the space industry.